Home   Weather   52°32'N, 4°43'E   Past weeks
Flag for Netherlands

Past Weather in 52°32'N, 4°43'E, Netherlands — Yesterday and Last 2 Weeks

Now
55 °F

Scattered clouds.


Feels Like: 53 °F
Forecast: 57 / 49 °F
Wind: 10 mph from South

Location: Amsterdam Schiphol Airport

Current Time: Oct 19, 2019 at 12:37:04 pm

Latest Report: Oct 19, 2019 at 11:55 am


Visibility: N/A

Pressure: 29.59 "Hg

Humidity: 88%

Dew Point: 52 °F

Location of 52°32'N, 4°43'ELocation

Past Weather in 52°32'N, 4°43'E — Graph

°F

52°32'N, 4°43'E Temperature Yesterday

Maximum temperature yesterday: 57 °F (at 10:55 am)
Minimum temperature yesterday: 50 °F (at 11:25 pm)
Average temperature yesterday: 54 °F

High & Low Weather Summary for the Past Weeks

 TemperatureHumidityPressure
High70 °F (Oct 13, 2:25 pm)100% (Oct 4, 11:55 am)30.07 "Hg (Oct 4, 11:55 am)
Low39 °F (Oct 5, 6:55 am)63% (Oct 5, 2:55 pm)29.53 "Hg (Oct 4, 11:25 am)
Average55 °F88%29.76 "Hg
* Reported Oct 4 11:25 am — Oct 19 11:25 am, 52°32'N, 4°43'E. Weather by CustomWeather, © 2019

Note: Actual official high and low records may vary slightly from our data, if they occured in-between our weather recording intervals... More about our weather records

Advertising

52°32'N, 4°43'E Weather History for the Previous 24 Hours

Scroll right to see more
 ConditionsComfort  
Time TempWeatherWind HumidityBarometerVisibility
11:25 am
Sat, Oct 19
55 °FPassing clouds.13 mph88%29.59 "HgN/A
10:55 am55 °FScattered clouds.14 mph88%29.59 "HgN/A
10:25 am54 °FPassing clouds.13 mph94%29.59 "HgN/A
9:55 am54 °FPassing clouds.13 mph94%29.59 "HgN/A
9:25 am54 °FLight rain. Passing clouds.15 mph94%29.56 "HgN/A
8:55 am52 °FScattered clouds.14 mph94%29.56 "HgN/A
8:25 am52 °FScattered clouds.14 mph94%29.56 "HgN/A
7:55 am52 °FPassing clouds.14 mph88%29.56 "HgN/A
7:25 am52 °FPassing clouds.14 mph88%29.59 "HgN/A
6:55 am52 °FClear.14 mph88%29.59 "Hg10 mi
6:25 am52 °FClear.13 mph88%29.59 "Hg10 mi
5:55 am52 °FPassing clouds.14 mph82%29.59 "HgN/A
5:25 am50 °FClear.14 mph88%29.59 "Hg10 mi
4:55 am50 °FClear.14 mph88%29.59 "Hg10 mi
4:25 am50 °FClear.14 mph88%29.59 "Hg10 mi
3:55 am50 °FPassing clouds.15 mph88%29.59 "HgN/A
3:25 am50 °FPassing clouds.15 mph88%29.62 "HgN/A
2:55 am50 °FPassing clouds.13 mph82%29.62 "HgN/A
2:25 am50 °FClear.14 mph82%29.62 "Hg10 mi
1:55 am50 °FPassing clouds.15 mph82%29.62 "HgN/A
1:25 am50 °FClear.15 mph82%29.62 "Hg10 mi
12:55 am50 °FClear.14 mph82%29.62 "Hg10 mi
12:25 am50 °FClear.14 mph82%29.65 "Hg10 mi
11:55 pm
Fri, Oct 18
50 °FClear.13 mph82%29.65 "Hg10 mi
11:25 pm50 °FClear.13 mph82%29.65 "Hg10 mi
10:55 pm52 °FClear.13 mph77%29.65 "Hg10 mi
10:25 pm52 °FPassing clouds.15 mph72%29.65 "HgN/A
9:55 pm54 °FPassing clouds.17 mph72%29.65 "HgN/A
9:25 pm52 °FPassing clouds.16 mph82%29.65 "HgN/A
8:55 pm52 °FPassing clouds.17 mph82%29.62 "HgN/A
8:25 pm54 °FPassing clouds.17 mph77%29.65 "HgN/A
7:55 pm54 °FPassing clouds.21 mph77%29.65 "HgN/A
7:25 pm54 °FPassing clouds.21 mph77%29.62 "HgN/A
6:55 pm54 °FPassing clouds.23 mph77%29.62 "HgN/A
6:25 pm54 °FPassing clouds.23 mph77%29.62 "HgN/A
5:55 pm55 °FPassing clouds.26 mph72%29.62 "HgN/A
5:25 pm55 °FPassing clouds.24 mph72%29.62 "HgN/A
4:55 pm55 °FPassing clouds.22 mph72%29.62 "HgN/A
4:25 pm55 °FPassing clouds.25 mph77%29.59 "HgN/A
3:55 pm57 °FPassing clouds.24 mph72%29.59 "HgN/A
3:25 pm57 °FPassing clouds.29 mph67%29.59 "HgN/A
2:55 pm55 °FSprinkles. Scattered clouds.20 mph82%29.56 "HgN/A
2:25 pm54 °FSprinkles. Scattered clouds.25 mph88%29.53 "HgN/A
1:55 pm54 °FSprinkles. Scattered clouds.22 mph82%29.53 "HgN/A
1:25 pm55 °FScattered clouds.30 mph72%29.53 "HgN/A
12:55 pm57 °FScattered clouds.28 mph67%29.53 "HgN/A
12:25 pm57 °FPassing clouds.29 mph67%29.53 "HgN/A
Weather by CustomWeather, © 2019

See weather overview